Year,Month,Day,Hour,Minute,Value (Times are PST for temperature in C)
2011,07,01,00,00,12.00
2011,07,01,00,01,12.00
2011,07,01,00,02,12.10
2011,07,01,00,03,12.10
2011,07,01,00,04,12.10
2011,07,01,00,05,12.10
2011,07,01,00,06,12.10
2011,07,01,00,07,12.10
2011,07,01,00,08,12.10
2011,07,01,00,09,12.10
2011,07,01,00,10,12.10
2011,07,01,00,11,12.10
2011,07,01,00,12,12.10
2011,07,01,00,13,12.10
2011,07,01,00,14,12.10
2011,07,01,00,15,12.10
2011,07,01,00,16,12.10
2011,07,01,00,17,12.10
2011,07,01,00,18,12.10
2011,07,01,00,19,12.10
2011,07,01,00,20,12.10
2011,07,01,00,21,12.20
2011,07,01,00,22,12.20
2011,07,01,00,23,12.20
2011,07,01,00,24,12.20
2011,07,01,00,25,12.20
2011,07,01,00,26,12.20
2011,07,01,00,27,12.20
2011,07,01,00,28,12.20
2011,07,01,00,29,12.20
2011,07,01,00,30,12.20
2011,07,01,00,31,12.20
2011,07,01,00,32,12.20
2011,07,01,00,33,12.20
2011,07,01,00,34,12.20
2011,07,01,00,35,12.20
2011,07,01,00,36,12.20
2011,07,01,00,37,12.20
2011,07,01,00,38,12.10
2011,07,01,00,39,12.10
2011,07,01,00,40,12.10
2011,07,01,00,41,12.10
2011,07,01,00,42,12.10
2011,07,01,00,43,12.10
2011,07,01,00,44,12.10
2011,07,01,00,45,12.00
2011,07,01,00,46,12.00
2011,07,01,00,47,12.00
2011,07,01,00,48,12.00
2011,07,01,00,49,12.00
2011,07,01,00,50,11.90
2011,07,01,00,51,11.90
2011,07,01,00,52,11.90
2011,07,01,00,53,11.90
2011,07,01,00,54,11.90
2011,07,01,00,55,11.90
2011,07,01,00,56,11.90
2011,07,01,00,57,11.80
2011,07,01,00,58,11.80
2011,07,01,00,59,11.80
2011,07,01,01,00,11.70
2011,07,01,01,01,11.70
2011,07,01,01,02,11.70
2011,07,01,01,03,11.60
2011,07,01,01,04,11.60
2011,07,01,01,05,11.60
2011,07,01,01,06,11.60
2011,07,01,01,07,11.60
2011,07,01,01,08,11.50
2011,07,01,01,09,11.50
2011,07,01,01,10,11.50
2011,07,01,01,11,11.40
2011,07,01,01,12,11.40
2011,07,01,01,13,11.40
2011,07,01,01,14,11.40
2011,07,01,01,15,11.40
2011,07,01,01,16,11.30
2011,07,01,01,17,11.30
2011,07,01,01,18,11.30
2011,07,01,01,19,11.30
2011,07,01,01,20,11.30
2011,07,01,01,21,11.30
2011,07,01,01,22,11.40
2011,07,01,01,23,11.40
2011,07,01,01,24,11.40
2011,07,01,01,25,11.40
2011,07,01,01,26,11.40
2011,07,01,01,27,11.40
2011,07,01,01,28,11.50
2011,07,01,01,29,11.50
2011,07,01,01,30,11.50
2011,07,01,01,31,11.50
2011,07,01,01,32,11.50
2011,07,01,01,33,11.50
2011,07,01,01,34,11.50
2011,07,01,01,35,11.50
2011,07,01,01,36,11.40
2011,07,01,01,37,11.40
2011,07,01,01,38,11.40
2011,07,01,01,39,11.40
2011,07,01,01,40,11.40
2011,07,01,01,41,11.40
2011,07,01,01,42,11.40
2011,07,01,01,43,11.40
2011,07,01,01,44,11.40
2011,07,01,01,45,11.40
2011,07,01,01,46,11.40
2011,07,01,01,47,11.40
2011,07,01,01,48,11.50
2011,07,01,01,49,11.50
2011,07,01,01,50,11.50
2011,07,01,01,51,11.50
2011,07,01,01,52,11.50
2011,07,01,01,53,11.50
2011,07,01,01,54,11.50
2011,07,01,01,55,11.40
2011,07,01,01,56,11.40
2011,07,01,01,57,11.40
2011,07,01,01,58,11.40
2011,07,01,01,59,11.40
2011,07,01,02,00,11.40
2011,07,01,02,01,11.30
2011,07,01,02,02,11.30
2011,07,01,02,03,11.30
2011,07,01,02,04,11.30
2011,07,01,02,05,11.30
2011,07,01,02,06,11.30
2011,07,01,02,07,11.30
2011,07,01,02,08,11.30
2011,07,01,02,09,11.30
2011,07,01,02,10,11.30
2011,07,01,02,11,11.30
2011,07,01,02,12,11.30
2011,07,01,02,13,11.30
2011,07,01,02,14,11.30
2011,07,01,02,15,11.30
2011,07,01,02,16,11.30
2011,07,01,02,17,11.30
2011,07,01,02,18,11.30
2011,07,01,02,19,11.30
2011,07,01,02,20,11.20
2011,07,01,02,21,11.20
2011,07,01,02,22,11.20
2011,07,01,02,23,11.20
2011,07,01,02,24,11.20
2011,07,01,02,25,11.20
2011,07,01,02,26,11.20
2011,07,01,02,27,11.30
2011,07,01,02,28,11.30
2011,07,01,02,29,11.30
2011,07,01,02,30,11.30
2011,07,01,02,31,11.20
2011,07,01,02,32,11.20
2011,07,01,02,33,11.10
2011,07,01,02,34,11.10
2011,07,01,02,35,11.00
2011,07,01,02,36,11.00
2011,07,01,02,37,10.90
2011,07,01,02,38,10.90
2011,07,01,02,39,10.80
2011,07,01,02,40,10.80
2011,07,01,02,41,10.80
2011,07,01,02,42,10.70
2011,07,01,02,43,10.70
2011,07,01,02,44,10.70
2011,07,01,02,45,10.70
2011,07,01,02,46,10.80
2011,07,01,02,47,10.80
2011,07,01,02,48,10.80
2011,07,01,02,49,10.80
2011,07,01,02,50,10.80
2011,07,01,02,51,10.90
2011,07,01,02,52,10.90
2011,07,01,02,53,10.90
2011,07,01,02,54,10.90
2011,07,01,02,55,10.90
2011,07,01,02,56,10.90
2011,07,01,02,57,10.90
2011,07,01,02,58,10.90
2011,07,01,02,59,10.80
2011,07,01,03,00,10.80
2011,07,01,03,01,10.80
2011,07,01,03,02,10.80
2011,07,01,03,03,10.70
2011,07,01,03,04,10.70
2011,07,01,03,05,10.70
2011,07,01,03,06,10.70
2011,07,01,03,07,10.70
2011,07,01,03,08,10.70
2011,07,01,03,09,10.70
2011,07,01,03,10,10.70
2011,07,01,03,11,10.70
2011,07,01,03,12,10.70
2011,07,01,03,13,10.70
2011,07,01,03,14,10.70
2011,07,01,03,15,10.70
2011,07,01,03,16,10.70
2011,07,01,03,17,10.70
2011,07,01,03,18,10.70
2011,07,01,03,19,10.70
2011,07,01,03,20,10.70
2011,07,01,03,21,10.70
2011,07,01,03,22,10.70
2011,07,01,03,23,10.80
2011,07,01,03,24,10.80
2011,07,01,03,25,10.80
2011,07,01,03,26,10.80
2011,07,01,03,27,10.80
2011,07,01,03,28,10.80
2011,07,01,03,29,10.80
2011,07,01,03,30,10.80
2011,07,01,03,31,10.80
2011,07,01,03,32,10.80
2011,07,01,03,33,10.80
2011,07,01,03,34,10.80
2011,07,01,03,35,10.90
2011,07,01,03,36,10.90
2011,07,01,03,37,10.90
2011,07,01,03,38,10.90
2011,07,01,03,39,10.90
2011,07,01,03,40,10.90
2011,07,01,03,41,10.90
2011,07,01,03,42,10.90
2011,07,01,03,43,10.90
2011,07,01,03,44,10.90
2011,07,01,03,45,10.90
2011,07,01,03,46,10.90
2011,07,01,03,47,10.90
2011,07,01,03,48,11.00
2011,07,01,03,49,11.00
2011,07,01,03,50,11.00
2011,07,01,03,51,11.00
2011,07,01,03,52,11.00
2011,07,01,03,53,11.00
2011,07,01,03,54,11.00
2011,07,01,03,55,11.00
2011,07,01,03,56,11.00
2011,07,01,03,57,11.00
2011,07,01,03,58,11.00
2011,07,01,03,59,11.00
2011,07,01,04,00,11.00
2011,07,01,04,01,11.00
2011,07,01,04,02,11.00
2011,07,01,04,03,11.00
2011,07,01,04,04,11.00
2011,07,01,04,05,11.00
2011,07,01,04,06,11.00
2011,07,01,04,07,11.00
2011,07,01,04,08,11.00
2011,07,01,04,09,11.00
2011,07,01,04,10,11.00
2011,07,01,04,11,11.00
2011,07,01,04,12,11.00
2011,07,01,04,13,11.00
2011,07,01,04,14,11.00
2011,07,01,04,15,11.00
2011,07,01,04,16,11.00
2011,07,01,04,17,11.00
2011,07,01,04,18,11.00
2011,07,01,04,19,11.00
2011,07,01,04,20,11.00
2011,07,01,04,21,11.00
2011,07,01,04,22,11.00
2011,07,01,04,23,11.00
2011,07,01,04,24,11.00
2011,07,01,04,25,11.00
2011,07,01,04,26,11.00
2011,07,01,04,27,11.00
2011,07,01,04,28,11.00
2011,07,01,04,29,11.00
2011,07,01,04,30,11.00
2011,07,01,04,31,11.00
2011,07,01,04,32,11.00
2011,07,01,04,33,11.00
2011,07,01,04,34,11.00
2011,07,01,04,35,11.00
2011,07,01,04,36,11.00
2011,07,01,04,37,11.00
2011,07,01,04,38,11.00
2011,07,01,04,39,11.00
2011,07,01,04,40,11.10
2011,07,01,04,41,11.10
2011,07,01,04,42,11.10
2011,07,01,04,43,11.10
2011,07,01,04,44,11.10
2011,07,01,04,45,11.10
2011,07,01,04,46,11.10
2011,07,01,04,47,11.10
2011,07,01,04,48,11.10
2011,07,01,04,49,11.10
2011,07,01,04,50,11.10
2011,07,01,04,51,11.10
2011,07,01,04,52,11.10
2011,07,01,04,53,11.10
2011,07,01,04,54,11.10
2011,07,01,04,55,11.10
2011,07,01,04,56,11.10
2011,07,01,04,57,11.10
2011,07,01,04,58,11.10
2011,07,01,04,59,11.10
2011,07,01,05,00,11.10
2011,07,01,05,01,11.10
2011,07,01,05,02,11.10
2011,07,01,05,03,11.10
2011,07,01,05,04,11.10
2011,07,01,05,05,11.10
2011,07,01,05,06,11.10
2011,07,01,05,07,11.10
2011,07,01,05,08,11.10
2011,07,01,05,09,11.10
2011,07,01,05,10,11.10
2011,07,01,05,11,11.10
2011,07,01,05,12,11.10
2011,07,01,05,13,11.10
2011,07,01,05,14,11.10
2011,07,01,05,15,11.10
2011,07,01,05,16,11.10
2011,07,01,05,17,11.10
2011,07,01,05,18,11.00
2011,07,01,05,19,11.10
2011,07,01,05,20,11.10
2011,07,01,05,21,11.00
2011,07,01,05,22,11.10
2011,07,01,05,23,11.10
2011,07,01,05,24,11.10
2011,07,01,05,25,11.10
2011,07,01,05,26,11.10
2011,07,01,05,27,11.10
2011,07,01,05,28,11.10
2011,07,01,05,29,11.10
2011,07,01,05,30,11.10
2011,07,01,05,31,11.10
2011,07,01,05,32,11.10
2011,07,01,05,33,11.10
2011,07,01,05,34,11.10
2011,07,01,05,35,11.10
2011,07,01,05,36,11.10
2011,07,01,05,37,11.10
2011,07,01,05,38,11.10
2011,07,01,05,39,11.10
2011,07,01,05,40,11.10
2011,07,01,05,41,11.10
2011,07,01,05,42,11.10
2011,07,01,05,43,11.10
2011,07,01,05,44,11.10
2011,07,01,05,45,11.10
2011,07,01,05,46,11.10
2011,07,01,05,47,11.10
2011,07,01,05,48,11.10
2011,07,01,05,49,11.10
2011,07,01,05,50,11.10
2011,07,01,05,51,11.10
2011,07,01,05,52,11.10
2011,07,01,05,53,11.10
2011,07,01,05,54,11.10
2011,07,01,05,55,11.10
2011,07,01,05,56,11.10
2011,07,01,05,57,11.10
2011,07,01,05,58,11.10
2011,07,01,05,59,11.10
2011,07,01,06,00,11.10
2011,07,01,06,01,11.10
2011,07,01,06,02,11.10
2011,07,01,06,03,11.10
2011,07,01,06,04,11.10
2011,07,01,06,05,11.20
2011,07,01,06,06,11.20
2011,07,01,06,07,11.20
2011,07,01,06,08,11.20
2011,07,01,06,09,11.20
2011,07,01,06,10,11.20
2011,07,01,06,11,11.20
2011,07,01,06,12,11.20
2011,07,01,06,13,11.20
2011,07,01,06,14,11.20
2011,07,01,06,15,11.20
2011,07,01,06,16,11.20
2011,07,01,06,17,11.20
2011,07,01,06,18,11.20
2011,07,01,06,19,11.20
2011,07,01,06,20,11.30
2011,07,01,06,21,11.30
2011,07,01,06,22,11.30
2011,07,01,06,23,11.30
2011,07,01,06,24,11.20
2011,07,01,06,25,11.20
2011,07,01,06,26,11.20
2011,07,01,06,27,11.20
2011,07,01,06,28,11.20
2011,07,01,06,29,11.20
2011,07,01,06,30,11.10
2011,07,01,06,31,11.10
2011,07,01,06,32,11.10
2011,07,01,06,33,11.00
2011,07,01,06,34,11.00
2011,07,01,06,35,10.90
2011,07,01,06,36,10.90
2011,07,01,06,37,10.90
2011,07,01,06,38,10.90
2011,07,01,06,39,10.90
2011,07,01,06,40,10.90
2011,07,01,06,41,10.90
2011,07,01,06,42,10.90
2011,07,01,06,43,10.80
2011,07,01,06,44,10.90
2011,07,01,06,45,10.90
2011,07,01,06,46,10.90
2011,07,01,06,47,10.90
2011,07,01,06,48,10.90
2011,07,01,06,49,10.90
2011,07,01,06,50,10.80
2011,07,01,06,51,10.90
2011,07,01,06,52,10.90
2011,07,01,06,53,10.90
2011,07,01,06,54,10.90
2011,07,01,06,55,10.90
2011,07,01,06,56,10.90
2011,07,01,06,57,10.90
2011,07,01,06,58,10.90
2011,07,01,06,59,10.90
2011,07,01,07,00,10.90
2011,07,01,07,01,10.90
2011,07,01,07,02,10.90
2011,07,01,07,03,10.90
2011,07,01,07,04,10.90
2011,07,01,07,05,10.90
2011,07,01,07,06,10.90
2011,07,01,07,07,10.90
2011,07,01,07,08,10.90
2011,07,01,07,09,10.90
2011,07,01,07,10,11.00
2011,07,01,07,11,11.00
2011,07,01,07,12,11.00
2011,07,01,07,13,11.00
2011,07,01,07,14,11.00
2011,07,01,07,15,11.00
2011,07,01,07,16,11.00
2011,07,01,07,17,11.00
2011,07,01,07,18,11.00
2011,07,01,07,19,11.00
2011,07,01,07,20,11.00
2011,07,01,07,21,11.00
2011,07,01,07,22,11.00
2011,07,01,07,23,11.00
2011,07,01,07,24,11.00
2011,07,01,07,25,11.00
2011,07,01,07,26,11.00
2011,07,01,07,27,11.00
2011,07,01,07,28,11.10
2011,07,01,07,29,11.10
2011,07,01,07,30,11.10
2011,07,01,07,31,11.10
2011,07,01,07,32,11.10
2011,07,01,07,33,11.10
2011,07,01,07,34,11.10
2011,07,01,07,35,11.10
2011,07,01,07,36,11.10
2011,07,01,07,37,11.10
2011,07,01,07,38,11.10
2011,07,01,07,39,11.10
2011,07,01,07,40,11.10
2011,07,01,07,41,11.10
2011,07,01,07,42,11.10
2011,07,01,07,43,11.20
2011,07,01,07,44,11.20
2011,07,01,07,45,11.20
2011,07,01,07,46,11.20
2011,07,01,07,47,11.20
2011,07,01,07,48,11.20
2011,07,01,07,49,11.20
2011,07,01,07,50,11.20
2011,07,01,07,51,11.20
2011,07,01,07,52,11.20
2011,07,01,07,53,11.20
2011,07,01,07,54,11.30
2011,07,01,07,55,11.30
2011,07,01,07,56,11.30
2011,07,01,07,57,11.30
2011,07,01,07,58,11.30
2011,07,01,07,59,11.30
2011,07,01,08,00,11.30
2011,07,01,08,01,11.30
2011,07,01,08,02,11.30
2011,07,01,08,03,11.30
2011,07,01,08,04,11.30
2011,07,01,08,05,11.30
2011,07,01,08,06,11.40
2011,07,01,08,07,11.40
2011,07,01,08,08,11.30
2011,07,01,08,09,11.40
2011,07,01,08,10,11.40
2011,07,01,08,11,11.40
2011,07,01,08,12,11.40
2011,07,01,08,13,11.40
2011,07,01,08,14,11.30
2011,07,01,08,15,11.30
2011,07,01,08,16,11.40
2011,07,01,08,17,11.40
2011,07,01,08,18,11.40
2011,07,01,08,19,11.40
2011,07,01,08,20,11.40
2011,07,01,08,21,11.40
2011,07,01,08,22,11.40
2011,07,01,08,23,11.40
2011,07,01,08,24,11.40
2011,07,01,08,25,11.40
2011,07,01,08,26,11.40
2011,07,01,08,27,11.50
2011,07,01,08,28,11.50
2011,07,01,08,29,11.50
2011,07,01,08,30,11.50
2011,07,01,08,31,11.40
2011,07,01,08,32,11.40
2011,07,01,08,33,11.40
2011,07,01,08,34,11.40
2011,07,01,08,35,11.40
2011,07,01,08,36,11.40
2011,07,01,08,37,11.50
2011,07,01,08,38,11.50
2011,07,01,08,39,11.50
2011,07,01,08,40,11.50
2011,07,01,08,41,11.50
2011,07,01,08,42,11.50
2011,07,01,08,43,11.50
2011,07,01,08,44,11.60
2011,07,01,08,45,11.60
2011,07,01,08,46,11.60
2011,07,01,08,47,11.60
2011,07,01,08,48,11.60
2011,07,01,08,49,11.60
2011,07,01,08,50,11.60
2011,07,01,08,51,11.60
2011,07,01,08,52,11.60
2011,07,01,08,53,11.60
2011,07,01,08,54,11.60
2011,07,01,08,55,11.60
2011,07,01,08,56,11.60
2011,07,01,08,57,11.60
2011,07,01,08,58,11.60
2011,07,01,08,59,11.60
2011,07,01,09,00,11.60
2011,07,01,09,01,11.70
2011,07,01,09,02,11.70
2011,07,01,09,03,11.70
2011,07,01,09,04,11.80
2011,07,01,09,05,11.80
2011,07,01,09,06,11.80
2011,07,01,09,07,11.80
2011,07,01,09,08,11.80
2011,07,01,09,09,11.80
2011,07,01,09,10,11.80
2011,07,01,09,11,11.80
2011,07,01,09,12,11.80
2011,07,01,09,13,11.80
2011,07,01,09,14,11.80
2011,07,01,09,15,11.80
2011,07,01,09,16,11.80
2011,07,01,09,17,11.80
2011,07,01,09,18,11.80
2011,07,01,09,19,11.80
2011,07,01,09,20,11.80
2011,07,01,09,21,11.80
2011,07,01,09,22,11.80
2011,07,01,09,23,11.80
2011,07,01,09,24,11.80
2011,07,01,09,25,11.80
2011,07,01,09,26,11.90
2011,07,01,09,27,11.90
2011,07,01,09,28,11.90
2011,07,01,09,29,11.90
2011,07,01,09,30,11.90
2011,07,01,09,31,12.00
2011,07,01,09,32,12.00
2011,07,01,09,33,12.00
2011,07,01,09,34,12.00
2011,07,01,09,35,12.00
2011,07,01,09,36,12.00
2011,07,01,09,37,12.00
2011,07,01,09,38,12.00
2011,07,01,09,39,12.10
2011,07,01,09,40,12.10
2011,07,01,09,41,12.10
2011,07,01,09,42,12.20
2011,07,01,09,43,12.20
2011,07,01,09,44,12.30
2011,07,01,09,45,12.30
2011,07,01,09,46,12.30
2011,07,01,09,47,12.30
2011,07,01,09,48,12.30
2011,07,01,09,49,12.30
2011,07,01,09,50,12.30
2011,07,01,09,51,12.30
2011,07,01,09,52,12.30
2011,07,01,09,53,12.40
2011,07,01,09,54,12.40
2011,07,01,09,55,12.40
2011,07,01,09,56,12.40
2011,07,01,09,57,12.50
2011,07,01,09,58,12.50
2011,07,01,09,59,12.60
2011,07,01,10,00,12.60
2011,07,01,10,01,12.60
2011,07,01,10,02,12.70
2011,07,01,10,03,12.70
2011,07,01,10,04,12.70
2011,07,01,10,05,12.80
2011,07,01,10,06,12.80
2011,07,01,10,07,12.80
2011,07,01,10,08,12.90
2011,07,01,10,09,12.90
2011,07,01,10,10,13.00
2011,07,01,10,11,13.10
2011,07,01,10,12,13.20
2011,07,01,10,13,13.30
2011,07,01,10,14,13.20
2011,07,01,10,15,13.20
2011,07,01,10,16,13.20
2011,07,01,10,17,13.20
2011,07,01,10,18,13.20
2011,07,01,10,19,13.10
2011,07,01,10,20,13.10
2011,07,01,10,21,13.10
2011,07,01,10,22,13.10
2011,07,01,10,23,13.20
2011,07,01,10,24,13.20
2011,07,01,10,25,13.20
2011,07,01,10,26,13.20
2011,07,01,10,27,13.20
2011,07,01,10,28,13.20
2011,07,01,10,29,13.30
2011,07,01,10,30,13.30
2011,07,01,10,31,13.40
2011,07,01,10,32,13.50
2011,07,01,10,33,13.70
2011,07,01,10,34,13.70
2011,07,01,10,35,13.80
2011,07,01,10,36,13.90
2011,07,01,10,37,14.00
2011,07,01,10,38,14.00
2011,07,01,10,39,14.10
2011,07,01,10,40,14.00
2011,07,01,10,41,14.10
2011,07,01,10,42,14.00
2011,07,01,10,43,14.00
2011,07,01,10,44,14.10
2011,07,01,10,45,14.10
2011,07,01,10,46,14.20
2011,07,01,10,47,14.10
2011,07,01,10,48,14.10
2011,07,01,10,49,14.20
2011,07,01,10,50,14.30
2011,07,01,10,51,14.50
2011,07,01,10,52,14.60
2011,07,01,10,53,14.60
2011,07,01,10,54,14.50
2011,07,01,10,55,14.40
2011,07,01,10,56,14.40
2011,07,01,10,57,14.40
2011,07,01,10,58,14.50
2011,07,01,10,59,14.50
2011,07,01,11,00,14.60
2011,07,01,11,01,14.60
2011,07,01,11,02,14.60
2011,07,01,11,03,14.60
2011,07,01,11,04,14.50
2011,07,01,11,05,14.40
2011,07,01,11,06,14.50
2011,07,01,11,07,14.60
2011,07,01,11,08,14.70
2011,07,01,11,09,14.80
2011,07,01,11,10,14.90
2011,07,01,11,11,14.80
2011,07,01,11,12,14.80
2011,07,01,11,13,14.90
2011,07,01,11,14,15.00
2011,07,01,11,15,15.00
2011,07,01,11,16,15.00
2011,07,01,11,17,14.90
2011,07,01,11,18,14.90
2011,07,01,11,19,14.80
2011,07,01,11,20,14.70
2011,07,01,11,21,14.80
2011,07,01,11,22,14.80
2011,07,01,11,23,14.90
2011,07,01,11,24,14.90
2011,07,01,11,25,15.00
2011,07,01,11,26,15.00
2011,07,01,11,27,15.00
2011,07,01,11,28,15.00
2011,07,01,11,29,15.00
2011,07,01,11,30,15.00
2011,07,01,11,31,15.00
2011,07,01,11,32,15.00
2011,07,01,11,33,15.00
2011,07,01,11,34,15.00
2011,07,01,11,35,15.00
2011,07,01,11,36,15.00
2011,07,01,11,37,15.00
2011,07,01,11,38,15.00
2011,07,01,11,39,15.00
2011,07,01,11,40,15.00
2011,07,01,11,41,15.00
2011,07,01,11,42,15.00
2011,07,01,11,43,15.00
2011,07,01,11,44,15.00
2011,07,01,11,45,15.00
2011,07,01,11,46,15.00
2011,07,01,11,47,15.00
2011,07,01,11,48,15.00
2011,07,01,11,49,15.00
2011,07,01,11,50,15.00
2011,07,01,11,51,15.00
2011,07,01,11,52,15.00
2011,07,01,11,53,15.00
2011,07,01,11,54,15.00
2011,07,01,11,55,14.90
2011,07,01,11,56,14.80
2011,07,01,11,57,14.70
2011,07,01,11,58,14.70
2011,07,01,11,59,14.60
2011,07,01,12,00,14.60
2011,07,01,12,01,14.60
2011,07,01,12,02,14.50
2011,07,01,12,03,14.50
2011,07,01,12,04,14.50
2011,07,01,12,05,14.50
2011,07,01,12,06,14.50
2011,07,01,12,07,14.40
2011,07,01,12,08,14.40
2011,07,01,12,09,14.40
2011,07,01,12,10,14.40
2011,07,01,12,11,14.40
2011,07,01,12,12,14.40
2011,07,01,12,13,14.50
2011,07,01,12,14,14.60
2011,07,01,12,15,14.70
2011,07,01,12,16,14.80
2011,07,01,12,17,14.90
2011,07,01,12,18,15.00
2011,07,01,12,19,15.00
2011,07,01,12,20,15.00
2011,07,01,12,21,15.10
2011,07,01,12,22,15.20
2011,07,01,12,23,15.20
2011,07,01,12,24,15.20
2011,07,01,12,25,15.30
2011,07,01,12,26,15.30
2011,07,01,12,27,15.30
2011,07,01,12,28,15.30
2011,07,01,12,29,15.30
2011,07,01,12,30,15.30
2011,07,01,12,31,15.40
2011,07,01,12,32,15.40
2011,07,01,12,33,15.40
2011,07,01,12,34,15.50
2011,07,01,12,35,15.60
2011,07,01,12,36,15.60
2011,07,01,12,37,15.60
2011,07,01,12,38,15.50
2011,07,01,12,39,15.40
2011,07,01,12,40,15.40
2011,07,01,12,41,15.50
2011,07,01,12,42,15.50
2011,07,01,12,43,15.50
2011,07,01,12,44,15.50
2011,07,01,12,45,15.40
2011,07,01,12,46,15.50
2011,07,01,12,47,15.60
2011,07,01,12,48,15.60
2011,07,01,12,49,15.60
2011,07,01,12,50,15.60
2011,07,01,12,51,15.60
2011,07,01,12,52,15.70
2011,07,01,12,53,15.70
2011,07,01,12,54,15.80
2011,07,01,12,55,15.90
2011,07,01,12,56,15.90
2011,07,01,12,57,15.90
2011,07,01,12,58,15.90
2011,07,01,12,59,15.90
2011,07,01,13,00,16.00
2011,07,01,13,01,16.10
2011,07,01,13,02,16.10
2011,07,01,13,03,16.00
2011,07,01,13,04,15.90
2011,07,01,13,05,15.80
2011,07,01,13,06,15.80
2011,07,01,13,07,15.70
2011,07,01,13,08,15.70
2011,07,01,13,09,15.70
2011,07,01,13,10,15.70
2011,07,01,13,11,15.70
2011,07,01,13,12,15.70
2011,07,01,13,13,15.60
2011,07,01,13,14,15.60
2011,07,01,13,15,15.70
2011,07,01,13,16,15.70
2011,07,01,13,17,15.70
2011,07,01,13,18,15.80
2011,07,01,13,19,15.90
2011,07,01,13,20,15.90
2011,07,01,13,21,15.90
2011,07,01,13,22,15.80
2011,07,01,13,23,15.90
2011,07,01,13,24,16.00
2011,07,01,13,25,16.10
2011,07,01,13,26,16.10
2011,07,01,13,27,16.00
2011,07,01,13,28,15.90
2011,07,01,13,29,15.80
2011,07,01,13,30,15.80
2011,07,01,13,31,15.80
2011,07,01,13,32,15.80
2011,07,01,13,33,15.90
2011,07,01,13,34,16.00
2011,07,01,13,35,16.20
2011,07,01,13,36,16.30
2011,07,01,13,37,16.40
2011,07,01,13,38,16.40
2011,07,01,13,39,16.40
2011,07,01,13,40,16.40
2011,07,01,13,41,16.40
2011,07,01,13,42,16.40
2011,07,01,13,43,16.30
2011,07,01,13,44,16.20
2011,07,01,13,45,16.20
2011,07,01,13,46,16.30
2011,07,01,13,47,16.30
2011,07,01,13,48,16.40
2011,07,01,13,49,16.40
2011,07,01,13,50,16.40
2011,07,01,13,51,16.50
2011,07,01,13,52,16.60
2011,07,01,13,53,16.60
2011,07,01,13,54,16.60
2011,07,01,13,55,16.60
2011,07,01,13,56,16.70
2011,07,01,13,57,16.70
2011,07,01,13,58,16.80
2011,07,01,13,59,16.90
2011,07,01,14,00,16.90
2011,07,01,14,01,16.90
2011,07,01,14,02,16.90
2011,07,01,14,03,16.80
2011,07,01,14,04,16.80
2011,07,01,14,05,16.80
2011,07,01,14,06,16.80
2011,07,01,14,07,16.80
2011,07,01,14,08,16.90
2011,07,01,14,09,16.90
2011,07,01,14,10,16.90
2011,07,01,14,11,16.90
2011,07,01,14,12,16.80
2011,07,01,14,13,16.90
2011,07,01,14,14,16.90
2011,07,01,14,15,16.90
2011,07,01,14,16,16.90
2011,07,01,14,17,16.90
2011,07,01,14,18,16.90
2011,07,01,14,19,16.90
2011,07,01,14,20,17.00
2011,07,01,14,21,17.10
2011,07,01,14,22,17.10
2011,07,01,14,23,17.10
2011,07,01,14,24,17.10
2011,07,01,14,25,17.10
2011,07,01,14,26,17.10
2011,07,01,14,27,17.00
2011,07,01,14,28,16.90
2011,07,01,14,29,16.90
2011,07,01,14,30,16.90
2011,07,01,14,31,17.00
2011,07,01,14,32,17.10
2011,07,01,14,33,17.10
2011,07,01,14,34,17.10
2011,07,01,14,35,17.00
2011,07,01,14,36,17.00
2011,07,01,14,37,17.00
2011,07,01,14,38,17.00
2011,07,01,14,39,16.90
2011,07,01,14,40,16.80
2011,07,01,14,41,16.80
2011,07,01,14,42,16.70
2011,07,01,14,43,16.60
2011,07,01,14,44,16.60
2011,07,01,14,45,16.60
2011,07,01,14,46,16.70
2011,07,01,14,47,16.80
2011,07,01,14,48,16.90
2011,07,01,14,49,16.90
2011,07,01,14,50,16.70
2011,07,01,14,51,16.70
2011,07,01,14,52,16.70
2011,07,01,14,53,16.80
2011,07,01,14,54,16.90
2011,07,01,14,55,17.00
2011,07,01,14,56,17.10
2011,07,01,14,57,17.20
2011,07,01,14,58,17.20
2011,07,01,14,59,17.20
2011,07,01,15,00,17.20
2011,07,01,15,01,17.20
2011,07,01,15,02,17.10
2011,07,01,15,03,17.10
2011,07,01,15,04,17.10
2011,07,01,15,05,17.10
2011,07,01,15,06,17.00
2011,07,01,15,07,17.10
2011,07,01,15,08,17.10
2011,07,01,15,09,17.10
2011,07,01,15,10,17.10
2011,07,01,15,11,17.20
2011,07,01,15,12,17.30
2011,07,01,15,13,17.50
2011,07,01,15,14,17.50
2011,07,01,15,15,17.50
2011,07,01,15,16,17.50
2011,07,01,15,17,17.50
2011,07,01,15,18,17.40
2011,07,01,15,19,17.50
2011,07,01,15,20,17.60
2011,07,01,15,21,17.70
2011,07,01,15,22,17.60
2011,07,01,15,23,17.60
2011,07,01,15,24,17.50
2011,07,01,15,25,17.50
2011,07,01,15,26,17.60
2011,07,01,15,27,17.60
2011,07,01,15,28,17.60
2011,07,01,15,29,17.60
2011,07,01,15,30,17.70
2011,07,01,15,31,17.70
2011,07,01,15,32,17.80
2011,07,01,15,33,17.90
2011,07,01,15,34,17.90
2011,07,01,15,35,17.90
2011,07,01,15,36,18.00
2011,07,01,15,37,18.10
2011,07,01,15,38,18.20
2011,07,01,15,39,18.30
2011,07,01,15,40,18.40
2011,07,01,15,41,18.50
2011,07,01,15,42,18.60
2011,07,01,15,43,18.60
2011,07,01,15,44,18.70
2011,07,01,15,45,18.70
2011,07,01,15,46,18.70
2011,07,01,15,47,18.70
2011,07,01,15,48,18.70
2011,07,01,15,49,18.70
2011,07,01,15,50,18.70
2011,07,01,15,51,18.70
2011,07,01,15,52,18.60
2011,07,01,15,53,18.60
2011,07,01,15,54,18.60
2011,07,01,15,55,18.60
2011,07,01,15,56,18.40
2011,07,01,15,57,18.30
2011,07,01,15,58,18.40
2011,07,01,15,59,18.40
2011,07,01,16,00,18.50
2011,07,01,16,01,18.50
2011,07,01,16,02,18.50
2011,07,01,16,03,18.70
2011,07,01,16,04,18.80
2011,07,01,16,05,18.80
2011,07,01,16,06,18.90
2011,07,01,16,07,18.90
2011,07,01,16,08,19.00
2011,07,01,16,09,19.00
2011,07,01,16,10,19.00
2011,07,01,16,11,18.80
2011,07,01,16,12,18.70
2011,07,01,16,13,18.60
2011,07,01,16,14,18.50
2011,07,01,16,15,18.40
2011,07,01,16,16,18.30
2011,07,01,16,17,18.10
2011,07,01,16,18,18.00
2011,07,01,16,19,17.90
2011,07,01,16,20,17.90
2011,07,01,16,21,17.90
2011,07,01,16,22,18.00
2011,07,01,16,23,18.00
2011,07,01,16,24,18.00
2011,07,01,16,25,17.90
2011,07,01,16,26,17.90
2011,07,01,16,27,17.90
2011,07,01,16,28,17.90
2011,07,01,16,29,17.90
2011,07,01,16,30,17.90
2011,07,01,16,31,17.90
2011,07,01,16,32,17.90
2011,07,01,16,33,17.80
2011,07,01,16,34,17.70
2011,07,01,16,35,17.70
2011,07,01,16,36,17.70
2011,07,01,16,37,17.70
2011,07,01,16,38,17.80
2011,07,01,16,39,17.90
2011,07,01,16,40,17.90
2011,07,01,16,41,17.90
2011,07,01,16,42,18.00
2011,07,01,16,43,18.10
2011,07,01,16,44,18.10
2011,07,01,16,45,18.10
2011,07,01,16,46,18.10
2011,07,01,16,47,18.00
2011,07,01,16,48,18.00
2011,07,01,16,49,18.00
2011,07,01,16,50,18.10
2011,07,01,16,51,18.20
2011,07,01,16,52,18.20
2011,07,01,16,53,18.20
2011,07,01,16,54,18.10
2011,07,01,16,55,18.10
2011,07,01,16,56,18.20
2011,07,01,16,57,18.20
2011,07,01,16,58,18.40
2011,07,01,16,59,18.50
2011,07,01,17,00,18.60
2011,07,01,17,01,18.60
2011,07,01,17,02,18.60
2011,07,01,17,03,18.60
2011,07,01,17,04,18.70
2011,07,01,17,05,18.70
2011,07,01,17,06,18.70
2011,07,01,17,07,18.80
2011,07,01,17,08,18.70
2011,07,01,17,09,18.70
2011,07,01,17,10,18.60
2011,07,01,17,11,18.50
2011,07,01,17,12,18.50
2011,07,01,17,13,18.60
2011,07,01,17,14,18.70
2011,07,01,17,15,18.80
2011,07,01,17,16,18.80
2011,07,01,17,17,18.80
2011,07,01,17,18,18.80
2011,07,01,17,19,18.80